Weather History for KHIB - June, 2013

Change the Weather History Date:

Tuesday, June 18, 2013

  Actual Average Record
Temperature  
Mean Temperature 54 °F -  
Max Temperature 72 °F 72 °F 87 °F (1988)
Min Temperature 35 °F 48 °F 32 °F (2004)
Degree Days  
Heating Degree Days 12    
Growing Degree Days 4 (Base 50)    
Moisture  
Dew Point 37 °F    
Average Humidity 67    
Maximum Humidity 93    
Minimum Humidity 28    
Precipitation  
Precipitation 0.00 in - - ()
Sea Level Pressure  
Sea Level Pressure 30.13 in    
Wind  
Wind Speed 2 mph (SE)    
Max Wind Speed 10 mph    
Max Gust Speed 16 mph    
Visibility 8 miles    
Events      
Averages and records for this station are not official NWS values.
T = Trace of Precipitation, MM = Missing Value Source: NWS Daily Summary

Daily Weather History Graph

Daily Weather History Graph

Search for Another Location

Airport or City:

Trip Planner

Search our weather history database for the weather conditions in past years. The results will help you decide how hot, cold, wet, or windy it might be!

Date:

Astronomy

Jun. 18, 2013 Rise Set
Actual Time 5:14 AM CDT 9:11 PM CDT
Civil Twilight 4:33 AM CDT 9:51 PM CDT
Nautical Twilight 3:37 AM CDT 10:47 PM CDT
Astronomical Twilight 2:10 AM CDT 12:14 AM CDT
Moon 3:40 PM CDT (6/18) 1:41 AM CDT (6/18)
Length of Visible Light 17h 17m
Length of Day
15h 57m
Waxing Gibbous, 71% of the Moon is Illuminated
Jun 18
Waxing Gibbous
Jun 23
Full
Jun 29
Last Quarter
Jul 8
New
Jul 15
First Quarter

Hourly Weather History & Observations

Time (CDT) Temp. Windchill Dew Point Humidity Pressure Visibility Wind Dir Wind Speed Gust Speed Precip Events Conditions
12:17 AM 42.8 °F - 39.2 °F 87% 30.12 in 1.5 mi Calm Calm - N/A   Clear
12:32 AM 41.0 °F - 37.4 °F 87% 30.12 in 3.0 mi Calm Calm - N/A   Clear
12:43 AM 41.0 °F - 39.2 °F 93% 30.12 in 2.5 mi Calm Calm - N/A   Clear
12:50 AM 41.0 °F - 37.4 °F 87% 30.13 in 4.0 mi Calm Calm - N/A   Clear
12:53 AM 42.1 °F - 37.9 °F 85% 30.15 in 3.0 mi Calm Calm - N/A   Clear
1:35 AM 39.2 °F - 37.4 °F 93% 30.13 in 2.0 mi Calm Calm - N/A   Clear
1:45 AM 39.2 °F 37.0 °F 37.4 °F 93% 30.13 in 3.0 mi NNW 3.5 mph - N/A   Clear
1:53 AM 39.0 °F - 36.0 °F 89% 30.16 in 10.0 mi Calm Calm - N/A   Clear
2:27 AM 37.4 °F 34.9 °F 35.6 °F 93% 30.13 in 1.5 mi NW 3.5 mph - N/A   Clear
2:53 AM 37.0 °F 34.5 °F 34.0 °F 89% 30.16 in 9.0 mi NNW 3.5 mph - N/A   Clear
3:15 AM 37.4 °F - 35.6 °F 93% 30.13 in 2.0 mi Calm Calm - N/A   Clear
3:23 AM 37.4 °F - 35.6 °F 93% 30.13 in 10.0 mi Calm Calm - N/A   Clear
3:53 AM 36.0 °F - 34.0 °F 93% 30.17 in 10.0 mi Calm Calm - N/A   Clear
4:53 AM 35.1 °F 32.2 °F 33.1 °F 92% 30.18 in 10.0 mi NNW 3.5 mph - N/A   Clear
5:53 AM 36.0 °F - 34.0 °F 93% 30.18 in 10.0 mi Calm Calm - N/A   Clear
6:53 AM 45.0 °F - 39.0 °F 80% 30.19 in 10.0 mi Calm Calm - N/A   Clear
7:53 AM 55.0 °F - 41.0 °F 59% 30.18 in 10.0 mi Calm Calm - N/A   Clear
8:53 AM 61.0 °F - 41.0 °F 48% 30.19 in 10.0 mi Variable 3.5 mph - N/A   Clear
9:53 AM 64.0 °F - 39.0 °F 40% 30.18 in 10.0 mi Variable 4.6 mph - N/A   Clear
10:53 AM 66.9 °F - 39.9 °F 37% 30.17 in 10.0 mi ESE 6.9 mph - N/A   Clear
11:53 AM - - - N/A% 30.15 in 10.0 mi East 6.9 mph 16.1 mph N/A   Unknown
12:53 PM 70.0 °F - 39.9 °F 33% 30.14 in - North - - N/A   Clear
1:53 PM 71.1 °F - 37.9 °F 30% 30.13 in - SSE 10.4 mph 16.1 mph N/A   Clear
2:53 PM 71.1 °F - 37.9 °F 30% 30.13 in 10.0 mi SE 5.8 mph - N/A   Clear
3:53 PM 72.0 °F - 37.0 °F 28% 30.11 in 10.0 mi South 8.1 mph - N/A   Clear
4:53 PM 72.0 °F - 37.0 °F 28% 30.10 in 10.0 mi ESE 9.2 mph - N/A   Clear
5:53 PM 71.1 °F - 36.0 °F 28% 30.09 in 10.0 mi SSE 9.2 mph - N/A   Clear
6:53 PM 69.1 °F - 36.0 °F 30% 30.09 in 10.0 mi SE 8.1 mph - N/A   Clear
7:53 PM 66.0 °F - 37.0 °F 34% 30.08 in 10.0 mi SSE 4.6 mph - N/A   Clear
8:53 PM 61.0 °F - 36.0 °F 39% 30.07 in 10.0 mi SE 4.6 mph - N/A   Clear
9:53 PM 50.0 °F - 39.0 °F 66% 30.08 in 10.0 mi Calm Calm - N/A   Clear
10:53 PM 46.0 °F - 39.0 °F 76% 30.08 in 10.0 mi Calm Calm - N/A   Clear
11:53 PM 42.1 °F - 37.9 °F 85% 30.07 in 10.0 mi Calm Calm - N/A   Clear